[[{"header":{"parameterUnit":"m.s-1","parameterCategory":2,"la1":30.2991,"la2":30.254,"lo1":-89.0895,"lo2":-89.0444,"dy":0.0017,"dx":0.0017,"nx":28,"ny":28,"refTime":"2023-07-23T09:00:00:Z","depth":"0","parameterNumber":2,"parameterNumberName":"U-component_of_CURRENTS"},"data":[0,0,0,0,0,0,0,0,0,0,0,0,0,0,0,0,0,0,0,0,0,0,0,0,0,0,0,0,0,0,0,0,0,0,0,0,0,0,0,0,0,0,0,0,0,0,0,0,0,0,0,0,0,0,0,0,0,0,0.2965,0.2966,0,0.2964,0.2964,0.2964,0.2958,0.2958,0.2958,0.2958,0.3007,0.3009,0.301,0,0,0,0,0,0,0,0,0,0,0,0,0,0.2963,0.2963,0.2965,0.2966,0.2966,0.2964,0.2964,0.2964,0.2958,0.2958,0.2958,0.2958,0.3007,0.3008,0.301,0,0,0,0,0,0,0,0,0,0,0,0,0,0.2962,0.2963,0.2965,0.2964,0.2964,0.2964,0.2964,0.2964,0.2958,0.2958,0.2958,0.2958,0.3006,0.3008,0.301,0.3023,0,0,0.3016,0.3017,0,0,0,0,0,0,0,0,0.2962,0.2962,0.2964,0.2964,0.2964,0.2962,0.2981,0.2986,0.2958,0.2958,0.2958,0.2958,0.2998,0.3001,0.2998,0.3025,0.3027,0.3016,0.3018,0.3019,0.3019,0,0,0,0,0,0,0,0.2962,0.2962,0.2963,0.2964,0.2964,0.2963,0.2963,0.2982,0.2978,0.2958,0.2958,0.2961,0.2998,0.2996,0.2999,0.3028,0.3016,0.3018,0.3019,0.302,0.3102,0.3103,0,0,0,0,0,0,0.2965,0.2962,0.2963,0.2964,0.2964,0.2963,0.2963,0.2962,0.2977,0.2979,0.2961,0.296,0.2992,0.2997,0.3001,0.3039,0.3019,0.302,0.3022,0.3101,0.3102,0.3103,0,0,0,0,0,0,0.2965,0.2965,0.2964,0.2964,0.2964,0.2963,0.2962,0.2962,0.296,0.2978,0.2981,0.296,0.2992,0.2998,0.3018,0.304,0.3021,0.3023,0.31,0.3101,0.3102,0.3101,0,0,0,0,0,0,0.2965,0.2965,0.2963,0.2964,0.2964,0.2957,0.2962,0.2962,0.2962,0.2962,0.2979,0.2983,0.2993,0.3015,0.302,0.3042,0.3025,0.3098,0.31,0.3102,0.31,0.3102,0.3104,0,0,0,0,0,0.2965,0.2958,0.2963,0.2963,0.2962,0.2957,0.2956,0.2955,0.2962,0.2955,0.2973,0.2982,0.3031,0.3017,0.3023,0.3046,0.3097,0.31,0.3102,0.3099,0.3102,0.3104,0,0,0,0,0,0,0.2953,0.2957,0.2963,0.2957,0.2956,0.2956,0.2951,0.2956,0.2963,0.2969,0.2987,0.2992,0.3031,0.3034,0.3018,0.3077,0.307,0.3073,0.3066,0.3068,0.3071,0.3066,0.3026,0,0,0,0,0,0.2952,0.2949,0.2953,0.2948,0.2948,0.2953,0.2951,0.2953,0.2961,0.2963,0.2976,0.3002,0.3044,0.3049,0.3082,0.3097,0.3133,0.312,0.3122,0.3124,0.3125,0.3202,0.3212,0.311,0.311,0.311,0,0,0.2946,0.2948,0.2946,0.2946,0.2947,0.2943,0.2951,0.2948,0.2952,0.2971,0.2979,0.3017,0.3055,0.3086,0.3102,0.3086,0.3172,0.3127,0.3128,0.3128,0.3206,0.3216,0.3225,0.3112,0.3111,0.3111,0,0,0.2929,0.2935,0.2926,0.2926,0.2929,0.2934,0.2935,0.2937,0.2945,0.2958,0.2994,0.3037,0.3064,0.3104,0.313,0.3162,0.3195,0.3173,0.3164,0.3239,0.3248,0.3256,0.3314,0.3327,0.3158,0.3158,0.3158,0,0.2922,0.2912,0.2922,0.2914,0.2914,0.2931,0.2923,0.2935,0.2945,0.2963,0.2959,0.3049,0.3078,0.3147,0.3157,0.3169,0.3208,0.3148,0.3242,0.3251,0.326,0.3317,0.3331,0.3158,0.3158,0.3158,0.3158,0,0.29,0.2892,0.2887,0.2887,0.2889,0.2883,0.2904,0.2915,0.2932,0.2951,0.3015,0.3061,0.3113,0.3137,0.3153,0.3235,0.3243,0.325,0.3233,0.327,0.3327,0.3343,0.3158,0.3158,0.3158,0.3158,0,0,0.2875,0.2873,0.2868,0.2859,0.2874,0.2867,0.2893,0.2917,0.2938,0.2971,0.3008,0.3089,0.3122,0.3154,0.3196,0.3249,0.3345,0.3264,0.3268,0.3316,0.3505,0.3535,0.3555,0.3369,0.3372,0.3374,0.352,0,0.2852,0.2826,0.2842,0.282,0.2804,0.284,0.2858,0.289,0.2927,0.2966,0.3046,0.31,0.3128,0.316,0.3225,0.3326,0.3386,0.3304,0.3465,0.347,0.349,0.3575,0.3626,0.3764,0.3535,0.3538,0.354,0,0.2812,0.2802,0.2777,0.2778,0.2778,0.278,0.2816,0.2836,0.2916,0.2951,0.3028,0.3088,0.3196,0.3202,0.3391,0.3338,0.3421,0.3487,0.3494,0.3534,0.353,0.3691,0.3801,0.3706,0.3564,0.3562,0.356,0,0.2756,0.2749,0.2727,0.2725,0.274,0.275,0.2768,0.283,0.2857,0.2948,0.2986,0.3114,0.3187,0.3316,0.3454,0.3434,0.3649,0.3641,0.3746,0.3748,0.383,0.3835,0.3866,0.3773,0.3772,0.3772,0.3772,0,0.2705,0.268,0.2699,0.268,0.2668,0.2701,0.2712,0.2753,0.2829,0.2871,0.2975,0.3041,0.3221,0.3357,0.3472,0.3668,0.3675,0.3772,0.3803,0.383,0.3833,0.3782,0.362,0.3777,0.3776,0.3775,0.3774,0,0.2621,0.2638,0.2605,0.2624,0.2631,0.2618,0.2662,0.268,0.2761,0.2826,0.2859,0.3017,0.3216,0.3389,0.361,0.3701,0.3788,0.3925,0.3934,0.3964,0.3973,0.3807,0.3678,0.3611,0.4088,0.4089,0.4091,0,0.2555,0.2532,0.2546,0.2538,0.2543,0.2544,0.2555,0.2632,0.2666,0.2809,0.2842,0.3044,0.3204,0.354,0.3771,0.4018,0.3845,0.415,0.4127,0.4002,0.3841,0.36,0.3533,0.4237,0.424,0.4242,0.4244,0,0.2424,0.2448,0.244,0.2432,0.2435,0.2444,0.2473,0.2496,0.2605,0.2692,0.2832,0.2975,0.3343,0.3629,0.3941,0.4111,0.3969,0.4201,0.4092,0.3977,0.3697,0.3639,0.4078,0.4263,0.4261,0.426,0.4259,0.4258,0.2324,0.23,0.2309,0.2303,0.2314,0.2332,0.2332,0.2409,0.248,0.2609,0.2769,0.2991,0.3421,0.3909,0.4074,0.4342,0.4097,0.4313,0.4131,0.3908,0.3798,0.4261,0.4456,0.4456,0.4455,0.4454,0.4454,0,0.218,0.2183,0.2173,0.2176,0.2169,0.2216,0.2264,0.2282,0.2362,0.2551,0.2703,0.3131,0.3517,0.3907,0.4317,0.4279,0.4187,0.4157,0.385,0.3802,0.4304,0.4273,0.4412,0.4412,0.4413,0.4413,0.4413,0.4413,0.2094,0.2054,0.2072,0.2027,0.2041,0.2034,0.2056,0.2126,0.2253,0.2467,0.2692,0.2898,0.3359,0.3752,0.4019,0.4047,0.3758,0.3614,0.3451,0.3834,0.3835,0.3836,0.3779,0.3812,0.381,0.3018,0.301,0.3005]},{"header":{"parameterUnit":"m.s-1","parameterCategory":2,"la1":30.2991,"la2":30.254,"lo1":-89.0895,"lo2":-89.0444,"dy":0.0017,"dx":0.0017,"nx":28,"ny":28,"refTime":"2023-07-23T09:00:00:Z","depth":"0","parameterNumber":3,"parameterNumberName":"V-component_of_CURRENTS"},"data":[0,0,0,0,0,0,0,0,0,0,0,0,0,0,0,0,0,0,0,0,0,0,0,0,0,0,0,0,0,0,0,0,0,0,0,0,0,0,0,0,0,0,0,0,0,0,0,0,0,0,0,0,0,0,0,0,0,0,-0.0034,-0.0034,0,-0.0013,-0.0013,-0.0012,-0.0003,-0.0003,-0.0003,-0.0003,-0.0067,-0.0069,-0.007,0,0,0,0,0,0,0,0,0,0,0,0,0,-0.0067,-0.0067,-0.0034,-0.0034,-0.0034,-0.0013,-0.0013,-0.0012,-0.0003,-0.0003,-0.0003,-0.0003,-0.0066,-0.0068,-0.007,0,0,0,0,0,0,0,0,0,0,0,0,0,-0.005,-0.0066,-0.0034,-0.0027,-0.0026,-0.0013,-0.0013,-0.0012,-0.0003,-0.0003,-0.0003,-0.0003,-0.0066,-0.0068,-0.0071,-0.0085,0,0,-0.0078,-0.0079,0,0,0,0,0,0,0,0,-0.0051,-0.0049,-0.0028,-0.0027,-0.0026,-0.0011,-0.0047,-0.0041,-0.0003,-0.0012,-0.0003,-0.0003,-0.0056,-0.0059,-0.0054,-0.0088,-0.0091,-0.0078,-0.008,-0.0081,-0.0082,0,0,0,0,0,0,0,-0.0052,-0.005,-0.0026,-0.0028,-0.0027,-0.0024,-0.0022,-0.0046,-0.0036,-0.0011,-0.001,-0.0008,-0.0056,-0.0051,-0.0056,-0.0092,-0.0078,-0.0081,-0.0082,-0.0083,-0.0103,-0.0102,0,0,0,0,0,0,-0.0055,-0.0051,-0.0027,-0.0025,-0.0039,-0.0023,-0.0021,-0.0016,-0.0033,-0.0035,-0.0008,-0.0007,-0.0047,-0.0053,-0.0058,-0.0035,-0.0081,-0.0083,-0.0085,-0.0104,-0.0103,-0.0102,0,0,0,0,0,0,-0.0055,-0.0053,-0.0027,-0.0038,-0.0034,-0.0023,-0.0017,-0.0015,-0.0011,-0.003,-0.0034,-0.0005,-0.0047,-0.0055,-0.0063,-0.004,-0.0085,-0.0087,-0.0105,-0.0104,-0.0102,-0.0017,0,0,0,0,0,0,-0.0056,-0.0053,-0.0054,-0.0038,-0.0034,-0.0018,-0.0017,-0.0015,-0.0009,-0.0008,-0.0029,-0.0035,-0.0048,-0.0059,-0.0066,-0.0044,-0.0089,-0.0106,-0.0104,-0.0103,-0.0021,-0.0013,-0.0006,0,0,0,0,0,-0.0057,-0.0057,-0.0054,-0.0051,-0.0034,-0.0018,-0.0015,-0.0008,-0.0009,-0.0005,-0.0009,-0.0034,-0.0052,-0.0061,-0.0069,-0.0047,-0.0107,-0.0105,-0.0103,-0.0025,-0.0015,-0.0006,0,0,0,0,0,0,-0.0078,-0.0056,-0.0052,-0.0046,-0.0032,-0.0016,-0.0015,-0.0008,-0.0007,-0.001,-0.0027,-0.0032,-0.0028,-0.0054,-0.0063,-0.0047,-0.0083,-0.0082,-0.002,-0.0011,-0.0004,-0.0002,-0.0091,0,0,0,0,0,-0.0081,-0.0072,-0.0053,-0.005,-0.0043,-0.0029,-0.0024,-0.0015,-0.001,-0.0009,-0.0017,-0.0026,-0.0025,-0.0032,-0.0042,-0.0042,-0.0077,-0.0032,-0.0024,-0.0018,-0.0021,-0.0046,-0.0041,-0.0094,-0.0094,-0.0095,0,0,-0.0088,-0.0076,-0.0071,-0.0053,-0.0044,-0.0019,-0.0026,-0.0016,0.0012,-0.002,0.0005,-0.0005,-0.002,-0.0005,-0.0006,-0.0024,-0.002,-0.0015,-0.0009,-0.0016,-0.0044,-0.0038,-0.0034,-0.0093,-0.0093,-0.0093,0,0,-0.0088,-0.0086,-0.0073,-0.0057,-0.0039,-0.0023,-0.0018,0.0002,0.0016,0.0038,0.0032,0.0037,0.003,0.0037,0.0037,0.0073,0.0021,0.0069,0.0109,0.0085,0.0089,0.0092,0.0058,0.0057,0.0073,0.0073,0.0073,0,-0.0098,-0.0075,-0.0068,-0.0047,-0.0029,-0.002,0.0006,0.0026,0.0045,0.0059,0.0053,0.0068,0.0056,0.0082,0.0106,0.0092,0.0061,0.0079,0.0095,0.0097,0.0099,0.0063,0.0061,0.0077,0.0077,0.0077,0.0076,0,-0.0078,-0.006,-0.0053,-0.0015,0.0005,0.0023,0.0057,0.0078,0.0095,0.0116,0.0141,0.0136,0.0141,0.0149,0.0142,0.0158,0.0127,0.0108,0.0073,0.0109,0.0069,0.0066,0.0084,0.0082,0.0081,0.008,0,0,-0.0095,-0.0047,-0.0043,-0.0018,0.0023,0.0043,0.0089,0.0133,0.0162,0.0183,0.0217,0.0237,0.0225,0.0223,0.0213,0.0203,0.0199,0.0166,0.0163,0.0134,0.0135,0.01,0.0092,0.0182,0.0181,0.0181,0.0104,0,-0.008,-0.0036,-0.001,0.004,0.0066,0.0097,0.0141,0.018,0.021,0.0243,0.025,0.027,0.0257,0.0259,0.0252,0.0214,0.0193,0.0221,0.0101,0.0098,0.0063,0.0088,0.0146,0.0081,0.01,0.0099,0.0099,0,-0.0064,-0.0035,0.0012,0.0072,0.0086,0.012,0.0183,0.0225,0.0273,0.0292,0.0312,0.0311,0.0319,0.0292,0.0241,0.0258,0.02,0.0165,0.016,0.0093,0.0056,0.0046,0.0073,0.0057,0.0093,0.0093,0.0094,0,-0.0078,-0.0018,0.002,0.004,0.0109,0.0137,0.0176,0.0233,0.0275,0.0314,0.0339,0.034,0.0339,0.0283,0.0227,0.0226,0.0155,0.0137,0.0047,0.0043,0.0051,0.0048,0.0049,0.008,0.0081,0.0081,0.0081,0,-0.0071,-0.0042,0.0014,0.0036,0.0091,0.0133,0.0192,0.0234,0.0289,0.0341,0.0353,0.0386,0.0335,0.0301,0.0232,0.0135,0.0151,0.0052,0.0024,0.0082,0.0083,0.0033,-0.0056,0.0078,0.0079,0.0079,0.008,0,-0.0089,-0.0056,-0.0008,0.006,0.0085,0.0123,0.0208,0.0255,0.0297,0.0362,0.0375,0.041,0.0372,0.0307,0.0216,0.0137,-0.0006,0.0001,0.007,0.005,-0.0057,-0.0145,-0.0308,-0.0368,-0.0115,-0.0116,-0.0118,0,-0.0089,-0.0067,0.0005,0.0045,0.0078,0.0139,0.0192,0.0252,0.0307,0.0384,0.0419,0.041,0.0435,0.0294,0.0166,0.003,-0.0055,-0.0045,-0.0039,-0.0055,-0.0174,-0.0247,-0.0291,0.0006,0.0006,0.0006,0.0006,0,-0.0074,-0.0055,-0.001,0.0061,0.0119,0.0189,0.0264,0.0305,0.0382,0.0439,0.0512,0.0537,0.0429,0.0365,0.0173,0.006,-0.0101,-0.0053,-0.0074,-0.0091,-0.0168,-0.024,0.0038,0.0006,0.0006,0.0006,0.0006,0.0006,-0.0059,-0.0022,0.004,0.0106,0.017,0.0253,0.0317,0.0393,0.0484,0.0607,0.0604,0.0701,0.0601,0.0373,0.018,-0.0049,-0.0146,-0.0087,-0.0198,-0.0271,-0.0316,-0.0053,-0.0118,-0.0118,-0.0119,-0.0119,-0.012,0,-0.0019,0.003,0.0095,0.0184,0.0256,0.0282,0.0387,0.0461,0.0574,0.0702,0.0788,0.0886,0.0717,0.05,0.0179,-0.0073,-0.0198,-0.021,-0.025,-0.0294,-0.0025,0.0002,-0.0033,-0.0033,-0.0033,-0.0033,-0.0033,-0.0033,0.0019,0.0085,0.0121,0.0252,0.0313,0.042,0.0485,0.0586,0.07,0.0903,0.1052,0.1159,0.1169,0.0508,0.0064,-0.0127,-0.0324,-0.0421,-0.0546,-0.0277,-0.027,-0.0264,-0.0249,-0.0336,-0.0337,-0.0706,-0.071,-0.0713]}],[{"header":{"parameterUnit":"m.s-1","parameterCategory":2,"la1":30.2991,"la2":30.254,"lo1":-89.0895,"lo2":-89.0444,"dy":0.0017,"dx":0.0017,"nx":28,"ny":28,"refTime":"2023-07-23T09:00:00:Z","depth":"2","parameterNumber":2,"parameterNumberName":"U-component_of_CURRENTS"},"data":[0,0,0,0,0,0,0,0,0,0,0,0,0,0,0,0,0,0,0,0,0,0,0,0,0,0,0,0,0,0,0,0,0,0,0,0,0,0,0,0,0,0,0,0,0,0,0,0,0,0,0,0,0,0,0,0,0,0,0.0778,0.0779,0,0.0848,0.0849,0.0849,0.0936,0.0938,0.0939,0.0941,0.1006,0.1006,0.1007,0,0,0,0,0,0,0,0,0,0,0,0,0,0.0684,0.0685,0.0778,0.0779,0.078,0.0848,0.0849,0.0849,0.0936,0.0938,0.094,0.0941,0.1006,0.1006,0.1007,0,0,0,0,0,0,0,0,0,0,0,0,0,0.0734,0.0685,0.0777,0.0833,0.0839,0.0848,0.0849,0.085,0.0935,0.0938,0.094,0.0942,0.1006,0.1006,0.1007,0.0961,0,0,0.1008,0.1008,0,0,0,0,0,0,0,0,0.0731,0.0737,0.0824,0.0829,0.0836,0.0888,0.084,0.0888,0.0935,0.0896,0.0941,0.0943,0.0966,0.097,0.0974,0.0964,0.0967,0.1008,0.1008,0.1008,0.1008,0,0,0,0,0,0,0,0.0727,0.0734,0.0803,0.0825,0.0832,0.0843,0.0853,0.0849,0.0915,0.0899,0.0907,0.0918,0.0969,0.0974,0.0976,0.0968,0.1008,0.1008,0.1009,0.1009,0.1094,0.1096,0,0,0,0,0,0,0.0723,0.0731,0.0801,0.0805,0.0791,0.0843,0.0854,0.0867,0.0915,0.0925,0.0916,0.0921,0.0972,0.0976,0.0979,0.1109,0.1008,0.1009,0.1009,0.1092,0.1094,0.1096,0,0,0,0,0,0,0.0721,0.0729,0.0798,0.0772,0.0782,0.0843,0.0856,0.0867,0.0928,0.0928,0.0938,0.0972,0.0974,0.0979,0.1035,0.1105,0.1009,0.1009,0.1089,0.1093,0.1095,0.1252,0,0,0,0,0,0,0.0718,0.0727,0.0752,0.0771,0.0783,0.0844,0.0854,0.0867,0.0929,0.0939,0.0978,0.0984,0.0976,0.1035,0.1036,0.1104,0.101,0.1087,0.1091,0.1094,0.1245,0.126,0.1274,0,0,0,0,0,0.0714,0.0729,0.0753,0.0763,0.081,0.0846,0.0854,0.0902,0.093,0.0964,0.1,0.0986,0.106,0.1037,0.1037,0.1108,0.1085,0.109,0.1094,0.1238,0.1257,0.1273,0,0,0,0,0,0,0.0699,0.074,0.0767,0.0795,0.084,0.0863,0.0898,0.0928,0.0981,0.1008,0.1007,0.1015,0.109,0.1067,0.1042,0.114,0.1071,0.1076,0.118,0.1198,0.1212,0.1205,0.101,0,0,0,0,0,0.0706,0.0734,0.0776,0.0805,0.0832,0.0875,0.0903,0.0943,0.0981,0.101,0.1044,0.1072,0.1095,0.1126,0.1134,0.1185,0.1169,0.1229,0.1244,0.1257,0.125,0.1286,0.1304,0.1111,0.1111,0.1111,0,0,0.0702,0.0734,0.0748,0.0805,0.0843,0.0891,0.09,0.0964,0.1016,0.1004,0.1101,0.1123,0.1117,0.1185,0.1216,0.1188,0.131,0.1263,0.1274,0.1259,0.1293,0.1312,0.1329,0.1115,0.1114,0.1113,0,0,0.0707,0.0749,0.078,0.0826,0.0902,0.0931,0.0963,0.103,0.1083,0.1157,0.1171,0.1233,0.1273,0.1295,0.1301,0.1392,0.1379,0.1415,0.1498,0.1536,0.1552,0.1566,0.1602,0.1618,0.1432,0.1432,0.1432,0,0.0707,0.0758,0.0795,0.0847,0.0896,0.0957,0.1014,0.1061,0.1147,0.1198,0.1211,0.1313,0.1315,0.1392,0.1437,0.1427,0.1452,0.1439,0.1557,0.157,0.1582,0.1615,0.1631,0.144,0.1439,0.1439,0.1438,0,0.0736,0.0796,0.0823,0.091,0.0962,0.1026,0.1098,0.1178,0.125,0.13,0.1416,0.1438,0.1502,0.1524,0.151,0.1613,0.1607,0.1568,0.1517,0.1611,0.164,0.1654,0.1452,0.1449,0.1447,0.1445,0,0,0.0701,0.0817,0.0836,0.0901,0.1013,0.1059,0.1158,0.1263,0.1349,0.1442,0.1545,0.1608,0.1655,0.1663,0.1681,0.172,0.1834,0.1702,0.17,0.1746,0.1946,0.1848,0.1852,0.1842,0.1844,0.1846,0.1946,0,0.0729,0.0825,0.0879,0.0994,0.1065,0.1153,0.1234,0.134,0.1438,0.1554,0.1612,0.1705,0.1698,0.1761,0.1807,0.1821,0.1873,0.1811,0.1839,0.1839,0.1746,0.1864,0.1585,0.1642,0.1959,0.1961,0.1962,0,0.0766,0.083,0.0933,0.107,0.1108,0.1177,0.1346,0.1428,0.1578,0.1658,0.1778,0.183,0.1931,0.1891,0.199,0.1968,0.1975,0.1971,0.1974,0.1826,0.1763,0.159,0.1653,0.1984,0.1982,0.198,0.1979,0,0.076,0.0883,0.0969,0.1016,0.116,0.1234,0.1318,0.1472,0.1564,0.1738,0.1827,0.1951,0.2026,0.2064,0.2095,0.2063,0.2178,0.2116,0.2033,0.2026,0.1756,0.1721,0.217,0.217,0.217,0.217,0.2169,0,0.0794,0.0874,0.0975,0.1031,0.1144,0.1244,0.1386,0.1493,0.1648,0.1762,0.1886,0.199,0.2077,0.2159,0.2154,0.2157,0.2235,0.2066,0.2051,0.1805,0.1775,0.2024,0.2006,0.2173,0.2173,0.2172,0.2171,0,0.0814,0.0872,0.098,0.1111,0.1154,0.1244,0.1408,0.1506,0.1656,0.1811,0.187,0.205,0.2165,0.2236,0.23,0.2223,0.2224,0.2199,0.1912,0.186,0.2031,0.202,0.2107,0.2105,0.2102,0.2101,0.2099,0,0.0846,0.09,0.1021,0.107,0.1139,0.1264,0.1349,0.1505,0.1604,0.1832,0.1894,0.2073,0.213,0.221,0.2134,0.2113,0.224,0.1861,0.1713,0.2051,0.2029,0.202,0.2012,0.1438,0.1431,0.1426,0.1421,0,0.0907,0.094,0.1007,0.1093,0.1178,0.1272,0.1399,0.146,0.164,0.1743,0.188,0.1926,0.1989,0.1859,0.1853,0.1774,0.1836,0.1743,0.2194,0.1489,0.1425,0.1401,0.1414,0.1372,0.1377,0.138,0.1383,0.1385,0.0948,0.0986,0.1047,0.1132,0.1201,0.1266,0.1323,0.1412,0.1508,0.1597,0.1692,0.1668,0.158,0.1417,0.1419,0.1447,0.1508,0.1399,0.1414,0.1436,0.1332,0.1267,0.1166,0.1169,0.1172,0.1175,0.1178,0,0.1002,0.103,0.1088,0.1162,0.12,0.1267,0.1347,0.1325,0.1362,0.1408,0.1415,0.1119,0.099,0.1093,0.1007,0.0946,0.0906,0.0965,0.091,0.095,0.0989,0.0866,0.0575,0.0576,0.0577,0.0577,0,0,0.1032,0.1075,0.1089,0.1143,0.1196,0.1238,0.1267,0.118,0.1161,0.1035,0.0994,0.085,0.0908,0.0707,0.0642,0.0686,0.0837,0.063,0.1066,0.1034,0.1076,0.1139,0.098,0,0,0,0,0]},{"header":{"parameterUnit":"m.s-1","parameterCategory":2,"la1":30.2991,"la2":30.254,"lo1":-89.0895,"lo2":-89.0444,"dy":0.0017,"dx":0.0017,"nx":28,"ny":28,"refTime":"2023-07-23T09:00:00:Z","depth":"2","parameterNumber":3,"parameterNumberName":"V-component_of_CURRENTS"},"data":[0,0,0,0,0,0,0,0,0,0,0,0,0,0,0,0,0,0,0,0,0,0,0,0,0,0,0,0,0,0,0,0,0,0,0,0,0,0,0,0,0,0,0,0,0,0,0,0,0,0,0,0,0,0,0,0,0,0,-0.0257,-0.0258,0,-0.0357,-0.0359,-0.036,-0.0453,-0.0454,-0.0455,-0.0456,-0.0651,-0.0655,-0.0659,0,0,0,0,0,0,0,0,0,0,0,0,0,-0.0172,-0.0173,-0.0257,-0.0258,-0.0259,-0.0357,-0.0359,-0.036,-0.0453,-0.0454,-0.0456,-0.0457,-0.0649,-0.0654,-0.0659,0,0,0,0,0,0,0,0,0,0,0,0,0,-0.0235,-0.0173,-0.0256,-0.0317,-0.0323,-0.0357,-0.0359,-0.036,-0.0453,-0.0454,-0.0456,-0.0458,-0.0648,-0.0654,-0.066,-0.0666,0,0,-0.0679,-0.0682,0,0,0,0,0,0,0,0,-0.0231,-0.0238,-0.0307,-0.0313,-0.032,-0.0394,-0.04,-0.0467,-0.0452,-0.0404,-0.0457,-0.0458,-0.0572,-0.0584,-0.0599,-0.0675,-0.0683,-0.0679,-0.0683,-0.0686,-0.0688,0,0,0,0,0,0,0,-0.0226,-0.0234,-0.0297,-0.0308,-0.0316,-0.0348,-0.0358,-0.0413,-0.048,-0.0409,-0.0415,-0.0425,-0.0576,-0.0593,-0.0605,-0.0686,-0.0679,-0.0685,-0.0689,-0.0691,-0.0853,-0.0854,0,0,0,0,0,0,-0.0209,-0.023,-0.0294,-0.03,-0.0278,-0.0348,-0.036,-0.0369,-0.0478,-0.0495,-0.0423,-0.0429,-0.0581,-0.0597,-0.0612,-0.0646,-0.0686,-0.0692,-0.0695,-0.0852,-0.0853,-0.0854,0,0,0,0,0,0,-0.0207,-0.0214,-0.029,-0.0267,-0.0279,-0.0347,-0.0357,-0.037,-0.0405,-0.0488,-0.0507,-0.0446,-0.0583,-0.0603,-0.0672,-0.0653,-0.0695,-0.07,-0.0852,-0.0853,-0.0853,-0.07,0,0,0,0,0,0,-0.0204,-0.0212,-0.0215,-0.0265,-0.0279,-0.0306,-0.0356,-0.0371,-0.0406,-0.0415,-0.0513,-0.0532,-0.0586,-0.0662,-0.0678,-0.0663,-0.0705,-0.0851,-0.0852,-0.0853,-0.0705,-0.0696,-0.0688,0,0,0,0,0,-0.0201,-0.0182,-0.0214,-0.0223,-0.028,-0.0305,-0.0315,-0.037,-0.0406,-0.041,-0.0485,-0.053,-0.0681,-0.0667,-0.0686,-0.0672,-0.0851,-0.0852,-0.0853,-0.0708,-0.0697,-0.0688,0,0,0,0,0,0,-0.0135,-0.0191,-0.0228,-0.0226,-0.0266,-0.0321,-0.0324,-0.037,-0.043,-0.0445,-0.0533,-0.0556,-0.0612,-0.0671,-0.0655,-0.0728,-0.0775,-0.078,-0.0659,-0.0649,-0.0641,-0.0567,-0.071,0,0,0,0,0,-0.0124,-0.0134,-0.0191,-0.0191,-0.0207,-0.0271,-0.0291,-0.033,-0.0387,-0.0416,-0.0484,-0.0564,-0.0627,-0.0662,-0.0728,-0.0761,-0.0798,-0.0771,-0.0762,-0.0754,-0.0711,-0.0782,-0.0775,-0.0858,-0.0858,-0.0858,0,0,-0.0099,-0.0131,-0.0137,-0.018,-0.0215,-0.0208,-0.0287,-0.0308,-0.0305,-0.0427,-0.0449,-0.0539,-0.0634,-0.0672,-0.0702,-0.0719,-0.0748,-0.0756,-0.0748,-0.0708,-0.0783,-0.0774,-0.0766,-0.0859,-0.0859,-0.0858,0,0,-0.0032,-0.0081,-0.0062,-0.0087,-0.0135,-0.0168,-0.0174,-0.0235,-0.0267,-0.0305,-0.0395,-0.0467,-0.0562,-0.0615,-0.0656,-0.0646,-0.0708,-0.0685,-0.0571,-0.0641,-0.0634,-0.0627,-0.0638,-0.0634,-0.0674,-0.0673,-0.0673,0,0.0002,0.0016,-0.0058,-0.004,-0.004,-0.0142,-0.0105,-0.0146,-0.0223,-0.0234,-0.0296,-0.0431,-0.0523,-0.0554,-0.0553,-0.062,-0.0655,-0.0592,-0.0624,-0.0619,-0.0616,-0.0629,-0.0626,-0.0666,-0.0667,-0.0668,-0.0668,0,0.0087,0.0094,0.0109,0.0097,0.0086,0.0097,0.0039,0.0014,-0.0046,-0.0091,-0.0151,-0.028,-0.035,-0.0407,-0.0472,-0.049,-0.052,-0.0607,-0.0632,-0.0597,-0.0615,-0.0614,-0.0656,-0.0658,-0.066,-0.0662,0,0,0.0178,0.0172,0.0175,0.02,0.0161,0.0169,0.0175,0.0163,0.0178,0.0073,0.0085,-0.0047,-0.0127,-0.0179,-0.0291,-0.0352,-0.0364,-0.0448,-0.0455,-0.0423,-0.0472,-0.0415,-0.041,-0.0462,-0.0462,-0.0462,-0.0484,0,0.027,0.0343,0.0313,0.0389,0.0427,0.0357,0.038,0.0347,0.0294,0.0273,0.0135,0.0087,-0.0038,-0.008,-0.0156,-0.0327,-0.0361,-0.0346,-0.054,-0.0543,-0.047,-0.0408,-0.0416,-0.0431,-0.0484,-0.0485,-0.0485,0,0.0367,0.0405,0.0496,0.0543,0.0554,0.0579,0.0603,0.061,0.0549,0.0506,0.0435,0.0317,0.0222,0.0089,-0.0113,-0.01,-0.0243,-0.0376,-0.0382,-0.0373,-0.0486,-0.0486,-0.0429,-0.0485,-0.0485,-0.0485,-0.0485,0,0.0472,0.0537,0.0618,0.0631,0.066,0.0691,0.0705,0.0678,0.0693,0.065,0.0643,0.0509,0.0428,0.0232,-0.0028,-0.0074,-0.0251,-0.0365,-0.0429,-0.0427,-0.0488,-0.049,-0.0474,-0.0474,-0.0474,-0.0474,-0.0474,0,0.0586,0.0649,0.067,0.0714,0.0807,0.0798,0.0876,0.0868,0.0863,0.0888,0.0766,0.0746,0.0452,0.03,0.006,-0.0151,-0.0181,-0.0358,-0.042,-0.0433,-0.043,-0.0538,-0.0545,-0.0475,-0.0474,-0.0474,-0.0474,0,0.0674,0.0692,0.078,0.0833,0.0851,0.0912,0.0965,0.1019,0.1013,0.104,0.1032,0.0918,0.0739,0.0471,0.0158,-0.0018,-0.0249,-0.0319,-0.0269,-0.0322,-0.0392,-0.0391,-0.0369,-0.0367,-0.0365,-0.0363,-0.0362,0,0.0726,0.0781,0.0849,0.0892,0.0911,0.0989,0.104,0.1074,0.1125,0.1132,0.1151,0.1031,0.0925,0.0565,0.0262,-0.005,-0.0179,-0.0259,-0.0345,-0.0313,-0.0377,-0.038,-0.0382,-0.0373,-0.0372,-0.0372,-0.0371,0,0.0818,0.0824,0.0881,0.0956,0.1021,0.1108,0.1183,0.125,0.1287,0.1313,0.1319,0.1247,0.0971,0.0639,0.0277,0.0065,-0.0204,-0.0246,-0.0257,-0.0377,-0.0314,-0.0378,-0.0382,-0.0364,-0.0364,-0.0365,-0.0365,-0.0366,0.0851,0.0894,0.0942,0.1015,0.109,0.1193,0.1268,0.1358,0.1443,0.1458,0.14,0.1224,0.0827,0.0335,0.0114,-0.0057,-0.0077,-0.028,-0.0286,-0.0291,-0.0266,-0.0202,-0.0222,-0.0222,-0.0222,-0.0222,-0.0222,0,0.0878,0.0916,0.0996,0.108,0.1162,0.1188,0.133,0.1399,0.1494,0.1443,0.1401,0.0878,0.0576,0.0243,0.0026,-0.015,-0.0174,-0.0244,-0.0305,-0.0311,-0.0316,-0.0296,-0.0259,-0.0259,-0.0259,-0.0259,0,0,0.0893,0.0949,0.0989,0.1106,0.116,0.1255,0.1327,0.1442,0.1433,0.1312,0.112,0.0868,0.0459,0.0169,-0.0047,-0.0108,-0.0151,-0.0112,-0.007,-0.012,-0.0122,-0.0329,-0.0301,0,0,0,0,0]}],[{"header":{"parameterUnit":"m.s-1","parameterCategory":2,"la1":30.2991,"la2":30.254,"lo1":-89.0895,"lo2":-89.0444,"dy":0.0017,"dx":0.0017,"nx":28,"ny":28,"refTime":"2023-07-23T09:00:00:Z","depth":"4","parameterNumber":2,"parameterNumberName":"U-component_of_CURRENTS"},"data":[0,0,0,0,0,0,0,0,0,0,0,0,0,0,0,0,0,0,0,0,0,0,0,0,0,0,0,0,0,0,0,0,0,0,0,0,0,0,0,0,0,0,0,0,0,0,0,0,0,0,0,0,0,0,0,0,0,0,-0.011,-0.011,0,-0.009,-0.009,-0.0089,-0.007,-0.007,-0.007,-0.007,-0.0049,-0.0049,-0.0048,0,0,0,0,0,0,0,0,0,0,0,0,0,-0.0102,-0.0102,-0.011,-0.011,-0.011,-0.009,-0.009,-0.0089,-0.007,-0.007,-0.007,-0.007,-0.0049,-0.0049,-0.0048,0,0,0,0,0,0,0,0,0,0,0,0,0,-0.0095,-0.0102,-0.011,-0.0099,-0.0098,-0.009,-0.009,-0.0089,-0.007,-0.007,-0.007,-0.007,-0.0049,-0.0049,-0.0048,-0.0047,0,0,-0.0046,-0.0046,0,0,0,0,0,0,0,0,-0.0095,-0.0095,-0.0101,-0.01,-0.0099,-0.0084,-0.0079,-0.0075,-0.007,-0.0079,-0.007,-0.007,-0.0062,-0.006,-0.0054,-0.0046,-0.0045,-0.0046,-0.0045,-0.0045,-0.0045,0,0,0,0,0,0,0,-0.0096,-0.0095,-0.01,-0.0101,-0.0099,-0.0085,-0.0084,-0.0078,-0.007,-0.0078,-0.0077,-0.0078,-0.0061,-0.0055,-0.0054,-0.0044,-0.0046,-0.0045,-0.0045,-0.0045,-0.007,-0.0071,0,0,0,0,0,0,-0.0103,-0.0096,-0.0101,-0.01,-0.0098,-0.0086,-0.0084,-0.0088,-0.007,-0.0068,-0.0078,-0.0077,-0.0056,-0.0055,-0.0053,-0.0074,-0.0045,-0.0044,-0.0044,-0.0069,-0.007,-0.0071,0,0,0,0,0,0,-0.0103,-0.0104,-0.0102,-0.0098,-0.0098,-0.0086,-0.009,-0.0087,-0.0079,-0.007,-0.0068,-0.0072,-0.0056,-0.0054,-0.0049,-0.0073,-0.0044,-0.0043,-0.0067,-0.0069,-0.007,-0.0102,0,0,0,0,0,0,-0.0103,-0.0104,-0.0103,-0.0099,-0.0098,-0.0094,-0.009,-0.0087,-0.008,-0.0079,-0.0065,-0.0063,-0.0056,-0.005,-0.0048,-0.0071,-0.0043,-0.0066,-0.0068,-0.007,-0.01,-0.0105,-0.0109,0,0,0,0,0,-0.0103,-0.0102,-0.0103,-0.0104,-0.01,-0.0094,-0.0092,-0.0082,-0.008,-0.0075,-0.0069,-0.0063,-0.0062,-0.0049,-0.0047,-0.0071,-0.0065,-0.0067,-0.007,-0.0098,-0.0104,-0.0109,0,0,0,0,0,0,-0.0093,-0.01,-0.0102,-0.0102,-0.0099,-0.0092,-0.0085,-0.0082,-0.0073,-0.0071,-0.0064,-0.0062,-0.007,-0.0065,-0.0051,-0.0087,-0.0068,-0.007,-0.009,-0.0095,-0.01,-0.0092,-0.0042,0,0,0,0,0,-0.0094,-0.0097,-0.0099,-0.0098,-0.0097,-0.0092,-0.0088,-0.0083,-0.0078,-0.0073,-0.0067,-0.0069,-0.008,-0.0081,-0.0081,-0.0091,-0.0082,-0.011,-0.0115,-0.0119,-0.0113,-0.0133,-0.0138,-0.0079,-0.0079,-0.0079,0,0,-0.009,-0.0093,-0.0095,-0.0096,-0.0092,-0.0091,-0.0088,-0.0082,-0.0083,-0.0073,-0.0069,-0.0077,-0.0085,-0.01,-0.0106,-0.0097,-0.0129,-0.0122,-0.0125,-0.0116,-0.0136,-0.0141,-0.0146,-0.0081,-0.008,-0.008,0,0,-0.0083,-0.0088,-0.0088,-0.0088,-0.0086,-0.0086,-0.0085,-0.0081,-0.008,-0.0079,-0.0086,-0.0104,-0.0104,-0.0123,-0.0133,-0.0162,-0.0151,-0.0173,-0.019,-0.021,-0.0215,-0.0219,-0.0204,-0.0207,-0.0178,-0.0178,-0.0178,0,-0.0077,-0.008,-0.0085,-0.0085,-0.0085,-0.0085,-0.0084,-0.0084,-0.0079,-0.0085,-0.008,-0.0113,-0.0117,-0.0156,-0.0172,-0.0172,-0.017,-0.0168,-0.0215,-0.0219,-0.0223,-0.0207,-0.0209,-0.018,-0.018,-0.0179,-0.0179,0,-0.0072,-0.0074,-0.0073,-0.0078,-0.0078,-0.0075,-0.0082,-0.0085,-0.0088,-0.0093,-0.0121,-0.0136,-0.0158,-0.0177,-0.0181,-0.0224,-0.0209,-0.0216,-0.0198,-0.023,-0.0212,-0.0213,-0.0182,-0.0182,-0.0181,-0.0181,0,0,-0.0063,-0.0068,-0.0068,-0.0069,-0.0074,-0.0074,-0.0083,-0.0093,-0.0104,-0.0116,-0.0135,-0.0174,-0.0188,-0.0201,-0.0224,-0.0248,-0.0272,-0.0246,-0.0246,-0.0225,-0.0294,-0.0232,-0.0228,-0.0293,-0.0294,-0.0294,-0.0265,0,-0.0056,-0.0052,-0.0061,-0.0061,-0.0059,-0.0071,-0.0081,-0.0094,-0.0106,-0.0124,-0.0159,-0.0182,-0.0198,-0.0218,-0.0248,-0.0269,-0.028,-0.0277,-0.0271,-0.0269,-0.0207,-0.0229,-0.0297,-0.0267,-0.0267,-0.0267,-0.0268,0,-0.005,-0.0048,-0.0044,-0.0055,-0.0057,-0.0059,-0.0079,-0.0089,-0.0121,-0.0133,-0.017,-0.019,-0.0236,-0.0241,-0.0285,-0.0284,-0.0287,-0.0297,-0.0296,-0.0227,-0.0212,-0.0232,-0.0271,-0.027,-0.027,-0.027,-0.027,0,-0.0038,-0.004,-0.0035,-0.0037,-0.0048,-0.0054,-0.0063,-0.009,-0.0103,-0.014,-0.0153,-0.0205,-0.0228,-0.0257,-0.0279,-0.0285,-0.031,-0.0319,-0.0259,-0.0253,-0.0302,-0.0298,-0.0336,-0.0336,-0.0336,-0.0336,-0.0336,0,-0.0027,-0.0029,-0.0027,-0.0026,-0.0027,-0.0041,-0.0055,-0.0073,-0.0103,-0.0118,-0.0158,-0.0177,-0.0236,-0.0258,-0.0276,-0.0266,-0.0305,-0.0255,-0.0248,-0.0314,-0.0312,-0.0302,-0.0299,-0.0335,-0.0335,-0.0336,-0.0336,0,-0.0024,-0.0019,-0.0018,-0.0021,-0.0021,-0.0024,-0.0044,-0.0059,-0.0084,-0.0105,-0.0116,-0.016,-0.0177,-0.0214,-0.0249,-0.0247,-0.0252,-0.0235,-0.028,-0.0276,-0.0178,-0.0177,-0.0162,-0.0159,-0.0157,-0.0156,-0.0154,0,-0.0022,-0.0019,-0.0012,-0.0004,-0.0005,-0.0011,-0.0019,-0.0046,-0.0056,-0.0088,-0.0093,-0.0116,-0.014,-0.0133,-0.0178,-0.0184,-0.0186,-0.0179,-0.0201,-0.0169,-0.0163,-0.0165,-0.0166,-0.0151,-0.0151,-0.015,-0.015,0,-0.003,-0.0027,-0.0025,-0.0,0.0003,-0.0001,-0.0007,-0.0002,-0.0031,-0.006,-0.0054,-0.0062,-0.0069,-0.0092,-0.0094,-0.0108,-0.0186,-0.0159,-0.0164,-0.0184,-0.0156,-0.0153,-0.0157,-0.0143,-0.0144,-0.0145,-0.0145,0,-0.0042,-0.004,-0.0026,-0.001,0.0011,0.0027,0.0016,0.002,0.001,-0.001,-0.0005,-0.0028,-0.0056,-0.005,-0.0059,-0.0058,-0.0058,-0.0061,-0.007,-0.0078,-0.0068,-0.0021,0.0044,0,0,0,0,0,-0.0055,-0.005,-0.0035,-0.0009,0.0019,0.0027,0.0034,0.0021,0.0009,0.0027,0.0017,0.0017,0.0016,0.0,0.0018,-0.0026,-0.0065,-0.0005,-0.0075,-0.0106,-0.0114,-0.0111,0,0,0,0,0,0,-0.006,-0.0051,-0.0043,-0.0004,0.0021,0.0039,0.0051,0.0035,0.0054,0.0044,0.0046,0.0027,0.0023,0.0004,0.0017,0.0013,-0.0024,-0.0019,-0.0018,-0.0101,-0.0108,-0.0115,-0.0115,0,0,0,0,0]},{"header":{"parameterUnit":"m.s-1","parameterCategory":2,"la1":30.2991,"la2":30.254,"lo1":-89.0895,"lo2":-89.0444,"dy":0.0017,"dx":0.0017,"nx":28,"ny":28,"refTime":"2023-07-23T09:00:00:Z","depth":"4","parameterNumber":3,"parameterNumberName":"V-component_of_CURRENTS"},"data":[0,0,0,0,0,0,0,0,0,0,0,0,0,0,0,0,0,0,0,0,0,0,0,0,0,0,0,0,0,0,0,0,0,0,0,0,0,0,0,0,0,0,0,0,0,0,0,0,0,0,0,0,0,0,0,0,0,0,0.0317,0.0316,0,0.0288,0.0287,0.0287,0.0276,0.0276,0.0276,0.0276,0.0222,0.022,0.0219,0,0,0,0,0,0,0,0,0,0,0,0,0,0.0342,0.0342,0.0317,0.0316,0.0316,0.0288,0.0287,0.0287,0.0276,0.0276,0.0276,0.0276,0.0222,0.0221,0.0219,0,0,0,0,0,0,0,0,0,0,0,0,0,0.0324,0.0342,0.0317,0.0307,0.0306,0.0288,0.0287,0.0287,0.0276,0.0276,0.0276,0.0276,0.0223,0.0221,0.0219,0.0203,0,0,0.0212,0.0211,0,0,0,0,0,0,0,0,0.0325,0.0323,0.0309,0.0308,0.0306,0.0285,0.0276,0.0257,0.0276,0.0288,0.0276,0.0276,0.0241,0.0237,0.0232,0.02,0.0198,0.0212,0.021,0.0209,0.0209,0,0,0,0,0,0,0,0.0326,0.0324,0.0306,0.0308,0.0307,0.0297,0.0294,0.0273,0.0264,0.0287,0.0286,0.0282,0.024,0.0234,0.023,0.0197,0.0212,0.021,0.0208,0.0207,0.012,0.0119,0,0,0,0,0,0,0.033,0.0325,0.0306,0.0305,0.0316,0.0296,0.0294,0.0292,0.0264,0.026,0.0282,0.0281,0.0238,0.0233,0.0228,0.0176,0.0209,0.0207,0.0206,0.0121,0.012,0.0119,0,0,0,0,0,0,0.0331,0.0329,0.0308,0.0314,0.0311,0.0296,0.0294,0.0292,0.0289,0.0261,0.0257,0.0283,0.0238,0.0232,0.0201,0.0175,0.0206,0.0204,0.0122,0.0121,0.0119,0.0091,0,0,0,0,0,0,0.0332,0.033,0.0333,0.0314,0.031,0.0298,0.0294,0.0291,0.0286,0.0286,0.026,0.0255,0.0237,0.0205,0.0199,0.0172,0.0202,0.0123,0.0121,0.012,0.0093,0.0089,0.0085,0,0,0,0,0,0.0333,0.0332,0.0333,0.0331,0.0314,0.0298,0.0295,0.0285,0.0287,0.0284,0.026,0.0256,0.0189,0.0202,0.0196,0.0168,0.0124,0.0122,0.012,0.0095,0.009,0.0085,0,0,0,0,0,0,0.0343,0.0331,0.0331,0.0327,0.0316,0.0296,0.0291,0.0288,0.0269,0.0267,0.0245,0.0238,0.0199,0.0191,0.0206,0.0138,0.0155,0.0152,0.0138,0.0133,0.0129,0.0122,0.02,0,0,0,0,0,0.0348,0.0345,0.0331,0.0328,0.0323,0.031,0.0304,0.0297,0.0277,0.027,0.0248,0.0221,0.0184,0.0167,0.014,0.0106,0.0112,0.0084,0.008,0.0076,0.0066,0.0063,0.0058,0.0112,0.0112,0.0112,0,0,0.035,0.0343,0.0341,0.033,0.0321,0.0296,0.0307,0.0295,0.0266,0.0265,0.0222,0.0207,0.0173,0.0129,0.0111,0.0119,0.0064,0.0074,0.0071,0.0062,0.0061,0.0055,0.0051,0.011,0.011,0.0111,0,0,0.0335,0.0347,0.0331,0.032,0.0306,0.0295,0.0293,0.0274,0.0259,0.0218,0.0206,0.0178,0.0128,0.0097,0.0073,0.0033,0.0044,0.0027,-0.0004,-0.0006,-0.001,-0.0014,-0.0009,-0.0012,0.0023,0.0023,0.0023,0,0.0334,0.0311,0.0324,0.0299,0.0279,0.0292,0.0257,0.0244,0.0214,0.0189,0.0198,0.0121,0.0104,0.0039,0.0024,0.0021,0.0031,0.0018,-0.001,-0.0014,-0.0017,-0.0011,-0.0014,0.0022,0.0022,0.0022,0.0022,0,0.0293,0.0279,0.0269,0.0239,0.0224,0.0202,0.0183,0.0165,0.0151,0.013,0.0076,0.0058,0.0011,0.0003,-0.0004,-0.0043,-0.0025,-0.0012,0.0005,-0.0024,-0.0016,-0.0019,0.0019,0.002,0.0021,0.0021,0,0,0.0267,0.0243,0.0239,0.0212,0.0188,0.0168,0.0124,0.0079,0.0045,0.0025,-0.0026,-0.0075,-0.0063,-0.0088,-0.0087,-0.0088,-0.0097,-0.0059,-0.0059,-0.005,-0.0092,-0.0111,-0.0115,-0.0081,-0.0081,-0.0082,-0.0076,0,0.0222,0.0172,0.0166,0.0109,0.0075,0.0069,0.0026,-0.0007,-0.0031,-0.0068,-0.0084,-0.0125,-0.0104,-0.012,-0.0119,-0.0104,-0.0106,-0.01,-0.007,-0.007,-0.0079,-0.012,-0.0085,-0.0077,-0.0078,-0.0078,-0.0079,0,0.0165,0.014,0.0082,0.0034,0.0018,-0.0013,-0.0076,-0.0111,-0.015,-0.0168,-0.0196,-0.0194,-0.0215,-0.0179,-0.0172,-0.0165,-0.0137,-0.0115,-0.0114,-0.0126,-0.0094,-0.0045,-0.0083,-0.0082,-0.0082,-0.0082,-0.0082,0,0.0123,0.0073,0.0027,0.001,-0.0037,-0.0073,-0.0102,-0.0147,-0.0179,-0.0222,-0.0237,-0.0259,-0.0261,-0.0239,-0.0193,-0.0182,-0.0165,-0.0146,-0.0139,-0.0139,-0.0108,-0.0104,-0.0142,-0.0142,-0.0142,-0.0142,-0.0142,0,0.0062,0.0022,0.0007,-0.0022,-0.0084,-0.0107,-0.0171,-0.0203,-0.0238,-0.0264,-0.0278,-0.029,-0.0271,-0.0254,-0.0213,-0.0187,-0.0183,-0.016,-0.0148,-0.0119,-0.0117,-0.0109,-0.0105,-0.0142,-0.0142,-0.0142,-0.0142,0,0.0009,0.0003,-0.005,-0.0091,-0.0106,-0.0152,-0.0198,-0.0234,-0.0263,-0.0293,-0.0304,-0.0316,-0.0304,-0.0279,-0.0241,-0.0217,-0.0188,-0.0175,-0.0149,-0.0132,-0.0155,-0.0153,-0.0187,-0.0187,-0.0188,-0.0189,-0.0189,0,-0.0031,-0.0056,-0.0089,-0.011,-0.0131,-0.0184,-0.0214,-0.0249,-0.0263,-0.0297,-0.0298,-0.0315,-0.0314,-0.0283,-0.0256,-0.0217,-0.02,-0.0188,-0.0182,-0.018,-0.0164,-0.0161,-0.0158,-0.019,-0.019,-0.0191,-0.0191,0,-0.0102,-0.0096,-0.0127,-0.015,-0.018,-0.0216,-0.0245,-0.0255,-0.0277,-0.0299,-0.0304,-0.0312,-0.0306,-0.029,-0.0268,-0.0228,-0.0205,-0.0195,-0.0193,-0.0187,-0.0185,-0.0167,-0.0164,-0.0193,-0.0193,-0.0193,-0.0192,0,-0.0142,-0.0161,-0.0167,-0.0192,-0.0221,-0.0232,-0.0252,-0.0258,-0.0276,-0.029,-0.0287,-0.0298,-0.0303,-0.0295,-0.0262,-0.0249,-0.0243,-0.0226,-0.0222,-0.0219,-0.0234,-0.0236,-0.0265,0,0,0,0,0,-0.0176,-0.0177,-0.0204,-0.0212,-0.0235,-0.0241,-0.0261,-0.0265,-0.0268,-0.0272,-0.0281,-0.0276,-0.0278,-0.0279,-0.0271,-0.0271,-0.0237,-0.0261,-0.0213,-0.0206,-0.0203,-0.0217,0,0,0,0,0,0,-0.0191,-0.0212,-0.0205,-0.0217,-0.0219,-0.0233,-0.0246,-0.0248,-0.0242,-0.0251,-0.025,-0.0264,-0.0261,-0.0277,-0.0265,-0.0264,-0.0232,-0.0263,-0.0263,-0.0208,-0.0205,-0.0203,-0.0216,0,0,0,0,0]}]]